This demonstration page uses our WeatherBlox Daily Observations layout. Learn more.

Hourly Observations for October 29, 2020

Temp ( °F °C ) Dew Point ( °F °C ) Humidity (%) Winds ( mph kmh ) Pressure ( in mb ) Visibility ( mi km ) Precip ( " mm )
12:53 am 00:53 Cloudy with Rain 51 10.6 50 10 96 96 ENE 3 6 29.87 1012 5 8.0467 0.14 3.556
1:07 am 01:07 Cloudy with Rain 51 10.6 50 10 96 96 E 3 6 29.87 1011 5 8.0467 0.03 0.762
1:16 am 01:16 Cloudy with Light Rain 51 10.6 50 10 96 96 E 3 6 29.87 1011 5 8.0467 0.04 1.016
1:38 am 01:38 Cloudy with Light Rain 52 11.1 50 10 93 93 NE 3 6 29.86 1011 6 9.65604 0.05 1.27
1:53 am 01:53 Cloudy with Light Rain 52 11.1 50 10 93 93 Calm 29.84 1011 6 9.65604 0.07 1.778
2:02 am 02:02 Cloudy with Light Rain 52 11.1 50 10 93 93 Calm 29.86 1011 6 9.65604 0.01 0.254
2:50 am 02:50 Cloudy with Rain 52 11 52 11 100 100 NE 3 6 29.83 1010 4 6.43736 0.07 1.778
2:53 am 02:53 Cloudy with Rain 52 11.1 51 10.6 97 97 Calm 29.82 1010 4 6.43736 0.08 2.032
3:53 am 03:53 Cloudy with Light Rain 52 11.1 51 10.6 97 97 ENE 5 7 29.77 1008 4 6.43736 0.12 3.048
4:10 am 04:10 Cloudy with Rain 52 11.1 51 10.6 97 97 NE 5 7 29.77 1008 4 6.43736 0.02 0.508
4:53 am 04:53 Cloudy with Rain 53 11.7 51 10.6 93 93 NE 8 13 29.71 1006 3 4.82802 0.07 1.778
4:58 am 04:58 Cloudy with Rain 52 11.1 52 11.1 100 100 NE 9 15 29.71 1006 2.5 4.02335 0.02 0.508
5:25 am 05:25 Cloudy with Heavy Rain 52 11.1 52 11.1 100 100 VRB 6 9 29.71 1006 2.5 4.02335 0.15 3.81
5:53 am 05:53 Cloudy with Heavy Rain 52 11.1 52 11.1 100 100 NNE 6 9 29.7 1006 2.5 4.02335 0.26 6.604
6:02 am 06:02 Cloudy with Rain 52 11.1 52 11.1 100 100 N 5 7 29.71 1006 3 4.82802 0.03 0.762
6:12 am 06:12 Cloudy with Heavy Rain 52 11.1 52 11.1 100 100 NNE 7 11 29.71 1006 2.5 4.02335 0.08 2.032
6:22 am 06:22 Cloudy with Rain 52 11.1 52 11.1 100 100 NNE 7 11 29.71 1006 3 4.82802 0.11 2.794
6:35 am 06:35 Cloudy with Rain 52 11.1 52 11.1 100 100 NNE 13 20 29.71 1006 3 4.82802 0.15 3.81
6:53 am 06:53 Cloudy with Rain 52 11.1 51 10.6 97 97 NNE 12 19 29.69 1005 4 6.43736 0.2 5.08
7:23 am 07:23 Cloudy with Rain 51 10.6 50 10 96 96 NE 14 22 29.67 1005 4 6.43736 0.08 2.032
7:33 am 07:33 Cloudy with Rain 51 10.6 51 10.6 100 100 NE 14 22 29.68 1005 5 8.0467 0.09 2.286
7:53 am 07:53 Cloudy with Rain 51 10.6 51 10.6 100 100 NNE 13 20 29.67 1005 4 6.43736 0.14 3.556
8:23 am 08:23 Cloudy with Heavy Rain 51 10.6 50 10 96 96 NNE 13 20 29.68 1005 3 4.82802 0.08 2.032
8:28 am 08:28 Cloudy with Heavy Rain 51 10.6 50 10 96 96 NE 10 17 29.68 1005 2.5 4.02335 0.09 2.286
8:36 am 08:36 Cloudy with Rain 51 10.6 50 10 96 96 NNE 10 17 29.68 1005 2.5 4.02335 0.11 2.794
8:50 am 08:50 Cloudy with Rain 50 10 50 10 100 100 NNE 12 19 29.68 1005 2 3.21868 0.15 3.81
8:53 am 08:53 Cloudy with Rain 50 10 50 10 100 100 NNE 8 13 29.67 1005 2 3.21868 0.16 4.064
9:02 am 09:02 Cloudy with Rain 50 10 50 10 100 100 NNE 10 17 29.68 1005 2 3.21868 0.03 0.762
9:21 am 09:21 Cloudy with Rain 50 10 49 9.4 96 96 NE 12 19 29.67 1005 3 4.82802 0.07 1.778
9:33 am 09:33 Cloudy with Heavy Rain 50 10 49 9.4 96 96 NE 10 17 29.66 1004 2.5 4.02335 0.11 2.794
9:53 am 09:53 Cloudy with Rain 50 10 49 9.4 96 96 NNE 10 17 29.67 1005 3 4.82802 0.18 4.572
10:06 am 10:06 Cloudy with Rain 49 9.4 49 9.4 100 100 NNE 12 19 29.69 1005 2.5 4.02335 0.04 1.016
10:14 am 10:14 Cloudy with Rain 49 9.4 48 8.9 97 97 NNE 12 19 29.69 1005 3 4.82802 0.05 1.27
10:53 am 10:53 Cloudy with Heavy Rain 48 8.9 48 8.9 100 100 NE 10 17 29.66 1004 3 4.82802 0.18 4.572
11:08 am 11:08 Cloudy with Rain 48 8.9 48 8.9 100 100 N 12 19 29.69 1005 5 8.0467 0.03 0.762
11:43 am 11:43 Cloudy with Rain 48 8.9 48 8.9 100 100 NE 12 19 29.67 1005 4 6.43736 0.11 2.794
11:53 am 11:53 Cloudy with Light Rain 48 8.9 48 8.9 100 100 NE 12 19 29.67 1005 7 11.26538 0.12 3.048
12:07 pm 12:07 Cloudy with Light Rain 48 8.9 48 8.9 100 100 NNE 12 19 29.69 1005 10 16.0934 0.001 0.001
12:53 pm 12:53 Cloudy with Light Rain 48 8.9 47 8.3 96 96 NE 8 13 29.67 1005 10 16.0934 0.001 0.001
1:53 pm 13:53 Cloudy with Light Rain 48 8.9 47 8.3 96 96 NNE 9 15 29.67 1005 10 16.0934 0.001 0.001
2:53 pm 14:53 Cloudy 48 8.9 46 7.8 93 93 NNE 8 13 29.66 1004 8 12.87472 0.01 0.254
3:31 pm 15:31 Cloudy with Light Rain 48 8.9 47 8.3 96 96 NNE 7 11 29.66 1004 2.5 4.02335 0.01 0.254
3:45 pm 15:45 Cloudy with Light Rain 48 8.9 48 8.9 100 100 N 9 15 29.67 1005 3 4.82802 0.01 0.254
3:53 pm 15:53 Cloudy with Light Rain 48 8.9 47 8.3 96 96 N 13 20 29.67 1005 3 4.82802 0.01 0.254
4:00 pm 16:00 Cloudy with Light Rain 48 8.9 48 8.9 100 100 N 13 20 29.68 1005 3 4.82802 0.001 0.001
4:11 pm 16:11 Cloudy with Rain 48 8.9 48 8.9 100 100 N 8 13 29.69 1005 2 3.21868 0.01 0.254
4:53 pm 16:53 Cloudy with Light Rain 48 8.9 47 8.3 96 96 N 12 19 29.71 1006 3 4.82802 0.07 1.778
5:03 pm 17:03 Cloudy with Light Rain 48 8.9 47 8.3 96 96 N 8 13 29.72 1006 2.5 4.02335 0.01 0.254
5:10 pm 17:10 Cloudy with Light Rain 48 8.9 47 8.3 96 96 NNE 9 15 29.72 1006 4 6.43736 0.01 0.254
5:53 pm 17:53 Cloudy 48 9 N/A N/A NNE 9 15 29.73 1007 10 16.0934 0.01 0.254
6:53 pm 18:53 Cloudy with Light Rain 46 8 N/A N/A NNW 10 17 29.76 1008 5 8.0467 0.01 0.254
7:22 pm 19:22 Cloudy with Light Rain 47 8.3 47 8.3 100 100 N 14 22 29.77 1008 6 9.65604 0.001 0.001
7:46 pm 19:46 Cloudy with Light Rain 46 8 N/A N/A N 12 19 29.78 1009 6 9.65604 0.001 0.001
7:53 pm 19:53 Cloudy with Light Rain 46 8 N/A N/A N 10 17 29.78 1009 6 9.65604 0.001 0.001
8:53 pm 20:53 Cloudy 46 8 N/A N/A NNE 8 13 29.8 1009 9 14.48406 0.01 0.254
9:53 pm 21:53 Cloudy with Light Rain 45 7 N/A N/A NNW 9 15 29.84 1011 6 9.65604 0.03 0.762
10:05 pm 22:05 Cloudy with Light Rain 45 7 N/A N/A NNW 7 11 29.86 1011 6 9.65604 0.01 0.254
10:30 pm 22:30 Cloudy 46 7.8 46 7.8 100 100 NNW 12 19 29.87 1012 8 12.87472 0.01 0.254
10:53 pm 22:53 Cloudy 47 8.3 47 8.3 100 100 N 8 13 29.87 1012 10 16.0934 0.01 0.254
11:53 pm 23:53 Cloudy 47 8.3 46 7.8 97 97 NNW 8 13 29.91 1013 10 16.0934 0 0

Powered by AerisWeather